Home   Weather   Black Mountain   Past weeks

Flag for USA Past Weather in Black Mountain, North Carolina, USA — Yesterday and Last 2 Weeks

44 °F


Feels Like: 41 °F
Forecast: 37 / 67 °F
Wind: 6 mph from South

Location: Asheville Regional Airport

Current Time: Oct 25, 2016 at 9:47:32 AM

Latest Report: Oct 25, 2016 at 8:54 AM

Visibility: 10 mi

Pressure: 30.34 "Hg (27.76 "Hg at 729m altitude)

Humidity: 79%

Dew Point: 38 °F

Location of Black MountainLocation

Past Weather in Black Mountain — Graph


Black Mountain Temperature Yesterday

Maximum temperature yesterday: 77 °F (at 2:54 PM)
Minimum temperature yesterday: 39 °F (at 3:54 AM)
Average temperature yesterday: 57 °F

High & Low Weather Summary for the Past Weeks

High84 °F (Oct 19, 2:54 PM)97% (Oct 12, 8:58 AM)30.43 "Hg (Oct 12, 8:58 AM)
Low35 °F (Oct 23, 7:54 AM)22% (Oct 24, 3:54 PM)29.73 "Hg (Oct 21, 4:54 AM)
Average59 °F65%30.15 "Hg
* Reported Oct 10 7:54 AM — Oct 25 7:54 AM, Black Mountain, Weather by CustomWeather, © 2016

Note: Actual official high and low records may vary slightly from our data, if they occured in-between our weather recording intervals... More about our weather records


Black Mountain Weather History for the Previous 24 Hours

Scroll right to see more
Time TempWeatherWind HumidityBarometerVisibility
7:54 AM
Tue, Oct 25
41 °FSunny.6 mph86%30.32 "Hg10 mi
6:54 AM44 °FClear.No wind76%30.30 "Hg10 mi
5:54 AM45 °FClear.No wind74%30.27 "Hg10 mi
4:54 AM50 °FClear.6 mph61%30.24 "Hg10 mi
3:54 AM50 °FClear.8 mph63%30.23 "Hg10 mi
2:54 AM53 °FClear.10 mph55%30.24 "Hg10 mi
1:54 AM48 °FClear.5 mph68%30.25 "Hg10 mi
12:54 AM49 °FClear.5 mph69%30.24 "Hg10 mi
11:54 PM
Mon, Oct 24
51 °FClear.3 mph63%30.25 "Hg10 mi
10:54 PM51 °FClear.No wind69%30.24 "Hg10 mi
9:54 PM53 °FClear.No wind59%30.23 "Hg10 mi
8:54 PM58 °FClear.No wind47%30.22 "Hg10 mi
7:54 PM63 °FClear.7 mph38%30.22 "Hg10 mi
6:54 PM66 °FClear.6 mph33%30.19 "Hg10 mi
5:54 PM72 °FSunny.10 mph24%30.16 "Hg10 mi
4:54 PM75 °FSunny.12 mph23%30.15 "Hg10 mi
3:54 PM77 °FSunny.13 mph22%30.14 "Hg10 mi
2:54 PM77 °FSunny.13 mph29%30.14 "Hg10 mi
1:54 PM75 °FSunny.9 mph32%30.16 "Hg10 mi
12:54 PM75 °FSunny.15 mph31%30.17 "Hg10 mi
11:54 AM71 °FSunny.16 mph32%30.19 "Hg10 mi
10:54 AM66 °FSunny.13 mph36%30.21 "Hg10 mi
9:54 AM61 °FSunny.16 mph42%30.21 "Hg10 mi
Weather by CustomWeather, © 2016

See weather overviewHow to use our weather pages